Location: Wien
(48.2082°N, 16.3738°E)
Time: 07:36:15
(UTC+02:00)

YUBILEINY - Visible Passes

Search period start: 16 April 2024 00:00
Search period end: 26 April 2024 00:00
Orbit: 1479 x 1508 km, 82.5° (Epoch: 15 April)

Date Brightness Start Highest point End Pass type
(mag) Time Alt. Az. Time Alt. Az. Time Alt. Az.
16 Apr ? 04:59:33 10° N 05:06:05 22° NE 05:12:32 10° ESE visible
16 Apr ? 21:59:46 10° WSW 22:06:58 27° WNW 22:14:13 10° N visible
17 Apr ? 04:11:16 10° NNE 04:15:05 13° NE 04:18:52 10° ENE visible
17 Apr ? 21:08:17 10° SW 21:16:36 44° WNW 21:24:59 10° N visible
17 Apr ? 23:14:01 10° WNW 23:16:26 11° NW 23:18:52 10° NNW visible
18 Apr ? 05:16:41 10° N 05:24:19 31° ENE 05:31:51 10° ESE visible
18 Apr ? 20:17:48 10° SSW 20:26:37 72° WNW 20:35:30 10° N visible
18 Apr ? 22:19:23 10° W 22:25:18 19° NW 22:31:14 10° N visible
19 Apr ? 04:27:45 10° N 04:33:39 19° NE 04:39:28 10° E visible
19 Apr ? 21:27:01 10° WSW 21:34:37 31° WNW 21:42:17 10° N visible
20 Apr ? 03:40:12 10° NNE 03:42:29 11° NE 03:44:47 10° ENE visible
20 Apr ? 20:35:51 10° SSW 20:44:22 51° WNW 20:52:58 10° N visible
20 Apr ? 22:39:59 10° WNW 22:43:51 13° NW 22:47:43 10° NNW visible
21 Apr ? 04:44:46 10° N 04:51:58 27° ENE 04:59:05 10° ESE visible
21 Apr ? 21:46:20 10° WSW 21:52:51 22° NW 21:59:24 10° N visible
22 Apr ? 03:56:02 10° NNE 04:01:09 16° NE 04:06:14 10° E visible
22 Apr ? 20:54:22 10° SW 21:02:19 36° WNW 21:10:19 10° N visible
23 Apr ? 05:02:00 10° N 05:10:05 38° ENE 05:18:02 10° SE visible
23 Apr ? 22:06:27 10° W 22:11:19 15° NW 22:16:12 10° NNW visible
24 Apr ? 04:12:53 10° N 04:19:34 23° ENE 04:26:12 10° ESE visible
24 Apr ? 21:13:26 10° WSW 21:20:28 26° WNW 21:27:33 10° N visible
25 Apr ? 03:24:27 10° NNE 03:28:38 14° NE 03:32:46 10° ENE visible
25 Apr ? 20:21:49 10° SW 20:30:03 42° WNW 20:38:20 10° N visible
25 Apr ? 22:28:27 10° NW 22:30:01 10° NW 22:31:35 10° NNW visible
